Regional Weather Roundup
Issued by NWS

Home | Current Version | Previous Version | Graphics & Text | Print | Product List | Glossary On
Versions: 1 2 3 4 5 6 7 8 9 10 11 12 13 14 15 16 17 18 19 20 21 22 23 24 25 26 27 28 29 30 31 32 33 34 35 36 37 38 39 40 41 42 43 44 45 46 47 48 49 50
000
ASUS45 KTFX 031004
RWRMT
MONTANA REGIONAL WEATHER ROUNDUP
NATIONAL WEATHER SERVICE GREAT FALLS MT
400 AM MDT THU SEP 03 2015

NOTE: "FAIR" INDICATES FEW OR NO CLOUDS BELOW 12000 FEET WITH NO
SIGNIFICANT WEATHER AND/OR OBSTRUCTIONS TO VISIBILITY.

MTZ001>007-043-031100-
WEST OF THE DIVIDE

CITY           SKY/WX    TMP DP  RH WIND       PRES   REMARKS
KALISPELL      PTSUNNY   55  44  66 S6        29.88R
MISSOULA       RAIN      51  49  92 NW8       29.93R
BUTTE            N/A     45  37  73 CALM      29.92S
MULLAN PASS      N/A     41  35  79 W5        29.95R
DEER LODGE       N/A     48  39  71 N3        29.95S
EUREKA           N/A     46  39  76 CALM      29.91R
HAMILTON         N/A     55  41  58 NW5       29.90R
LIBBY            N/A     46  37  71 CALM      29.89F
$$

MTZ008-052>055-031100-
SOUTHWEST MONTANA

CITY           SKY/WX    TMP DP  RH WIND       PRES   REMARKS
BOZEMAN        MOCLDY    53  45  74 SE8       29.83R
DILLON           N/A    N/A N/A N/A MISG      29.83S
W YELLOWSTONE  MOCLDY    48  32  53 CALM      29.96S
$$

MTZ009-010-012-014-046-048-049-054-031100-
EAST SLOPES AND CENTRAL MONTANA

CITY           SKY/WX    TMP DP  RH WIND       PRES   REMARKS
CUT BANK       LGT RAIN  50  46  86 NW3       29.90S
GREAT FALLS      N/A     53  38  56 NE9       29.87S
MALMSTROM AFB    N/A     51  38  59 E2        29.88R
HELENA           N/A     57  39  51 W9        29.84S
$$

MTZ011-013-016-021-045-047-050-051-031100-
NORTH CENTRAL MONTANA

CITY           SKY/WX    TMP DP  RH WIND       PRES   REMARKS
HAVRE            N/A     51  36  56 W3        29.82S
LEWISTOWN        N/A     50  38  63 CALM      29.87R
N BAR RANCH      N/A     54  36  50 SW3       29.88S
CHINOOK          N/A     54  43  66 CALM      29.82R
$$

MTZ017>020-022>027-061-062-031100-
NORTHEAST MONTANA

CITY           SKY/WX    TMP DP  RH WIND       PRES   REMARKS
GLASGOW        CLEAR     67  37  33 N18       29.75R
JORDAN           N/A     68  37  32 N23G30    29.74R
SIDNEY         PTCLDY    68  48  49 N3          N/A
WOLF POINT     PTCLDY    71  39  31 N28G37    29.68R
PLENTYWOOD       N/A     68  43  40 N23G29    29.69S
POPLAR           N/A     72  39  30 N17G25    29.67R
$$

MTZ028>42-056>058-031100-
SOUTHCENTRAL AND SOUTHEAST MONTANA

CITY           SKY/WX    TMP DP  RH WIND       PRES   REMARKS
BAKER          CLEAR     62  50  64 N7        29.70R
BILLINGS       MOCLDY    64  33  31 NE7       29.82F
LIVINGSTON     MOCLDY    62  35  36 E13       29.83S
MILES CITY     CLEAR     68  44  42 N20       29.69R
FORSYTH          N/A     70  37  30 NW12G18   29.73R
$$

REGIONAL REPORTS...DAKOTAS

CITY           SKY/WX    TMP DP  RH WIND       PRES   REMARKS
WILLISTON      MOCLDY    68  54  60 N6        29.65F
MINOT          PTCLDY    68  66  93 E5        29.65S
DICKINSON      CLEAR     65  60  84 S10       29.66F
BISMARCK       CLEAR     68  68 100 E8        29.68F FOG
GRAND FORKS    CLOUDY    70  67  90 SE13      29.78S
FARGO          CLOUDY    74  70  87 SE12G23   29.78F
BUFFALO SD       N/A     69  49  48 S6        29.66S
RAPID CITY     CLEAR     61  47  59 SE3       29.78S
$$

REGIONAL REPORTS...WYOMING/IDAHO/WASHINGTON

CITY           SKY/WX    TMP DP  RH WIND       PRES   REMARKS
GILLETTE       CLEAR     75  35  23 SW17      29.82S
SHERIDAN       CLOUDY    72  34  24 NW15      29.82R
BUFFALO WY     MOCLDY    72  36  26 CALM      29.88R
CODY           CLOUDY    68  34  28 S12       29.86S
YELLOWSTONE LA   N/A     50  44  80 CALM      30.12S
IDAHO FALLS    PTCLDY    71  40  32 S9        29.81S
SALMON           N/A     54  39  58 NE3       29.80R
BOISE            N/A     59  43  55 NW10      29.84R
SPOKANE        MOCLDY    51  42  71 S6        29.86S
$$

REGIONAL REPORTS...ALBERTA

CITY           SKY/WX    TMP DP  RH WIND       PRES   REMARKS
$$

REGIONAL REPORTS...SASKATCHEWAN

CITY           SKY/WX    TMP DP  RH WIND       PRES   REMARKS
$$


USA.gov is the U.S. government's official web portal to all federal, state and local government web resources and services.